User: anonymous   Login
Location: Unspecified
(0.0000°N, 0.0000°E)
Time: 00:52:11
(UTC+00:00)
Language:

Amsat-Oscar-6 - Orbit

View from above orbital plane
View from above orbital plane
View from above satellite
View from above satellite

Ground track
Ground track

The orbit data is extracted from the following two-line orbital elements,

1 06236U 72082B   21023.55723646 -.00000028  00000-0  11591-3 0  9993
2 06236 101.9122   2.3592 0004143 311.4798 172.6808 12.53159610208118
Epoch (UTC): 23 January 2021 13:22:25
Eccentricity: 0.0004143
inclination: 101.9122°
perigee height: 1448 km
apogee height: 1454 km
right ascension of ascending node: 2.3592°
argument of perigee: 311.4798°
revolutions per day: 12.53159610
mean anomaly at epoch: 172.6808°
orbit number at epoch: 20811

The dashed part of the orbit path shows where the satellite is in the earth's shadow,  

DLR